Time,TemperatureF,DewpointF,PressureIn,WindDirection,WindDirectionDegrees,WindSpeedMPH,WindSpeedGustMPH,Humidity,HourlyPrecipIn,Conditions,Clouds,dailyrainin,SolarRadiationWatts/m^2,SoftwareType,DateUTC
2013-02-18 01:00:00,32.0,24.0,30.35,SSW,201,1.0,-999.0,73,-99.99,,,-99.99,0.000000,,2013-02-18 07:00:00,
2013-02-18 01:52:00,32.0,24.0,30.35,SSW,201,1.0,-999.0,73,-99.99,,,-99.99,0.000000,,2013-02-18 07:52:00,
2013-02-18 02:00:00,30.0,26.0,30.34,SW,222,0.0,-999.0,87,-99.99,,,-99.99,0.000000,,2013-02-18 08:00:00,
2013-02-18 02:52:00,30.0,26.0,30.34,SW,222,0.0,-999.0,87,-99.99,,,-99.99,0.000000,,2013-02-18 08:52:00,
2013-02-18 03:00:00,29.0,26.0,30.34,South,170,0.0,-999.0,88,-99.99,,,-99.99,0.000000,,2013-02-18 09:00:00,
2013-02-18 03:52:00,29.0,26.0,30.34,South,170,0.0,-999.0,88,-99.99,,,-99.99,0.000000,,2013-02-18 09:52:00,
2013-02-18 04:00:00,27.0,24.0,30.34,NE,43,0.0,-999.0,89,-99.99,,,-99.99,0.000000,,2013-02-18 10:00:00,
2013-02-18 04:53:00,27.0,24.0,30.34,NE,43,0.0,-999.0,89,-99.99,,,-99.99,0.000000,,2013-02-18 10:53:00,
2013-02-18 05:00:00,26.0,25.0,30.35,East,84,0.0,-999.0,94,-99.99,,,-99.99,0.000000,,2013-02-18 11:00:00,
2013-02-18 05:53:00,26.0,25.0,30.35,East,84,0.0,-999.0,94,-99.99,,,-99.99,0.000000,,2013-02-18 11:53:00,
2013-02-18 06:00:00,28.0,26.0,30.36,ENE,63,0.0,-999.0,93,-99.99,,,-99.99,0.000000,,2013-02-18 12:00:00,
2013-02-18 06:54:00,28.0,26.0,30.36,ENE,63,0.0,-999.0,93,-99.99,,,-99.99,0.000000,,2013-02-18 12:54:00,
2013-02-18 07:00:00,30.0,27.0,30.37,ENE,71,0.0,-999.0,87,-99.99,,,-99.99,29.180000,,2013-02-18 13:00:00,
2013-02-18 07:53:00,30.0,27.0,30.37,ENE,71,0.0,-999.0,87,-99.99,,,-99.99,29.180000,,2013-02-18 13:53:00,
2013-02-18 08:00:00,40.0,29.0,30.39,SE,133,2.0,-999.0,65,-99.99,,,-99.99,199.300003,,2013-02-18 14:00:00,
2013-02-18 08:54:00,40.0,29.0,30.39,SE,133,2.0,-999.0,65,-99.99,,,-99.99,199.300003,,2013-02-18 14:54:00,
2013-02-18 09:00:00,46.0,29.0,30.40,SSE,162,5.0,-999.0,52,-99.99,,,-99.99,360.399994,,2013-02-18 15:00:00,
2013-02-18 09:53:00,46.0,29.0,30.40,SSE,162,5.0,-999.0,52,-99.99,,,-99.99,360.399994,,2013-02-18 15:53:00,
2013-02-18 10:00:00,52.0,29.0,30.40,SSE,164,6.0,-999.0,40,-99.99,,,-99.99,548.000000,,2013-02-18 16:00:00,
2013-02-18 10:53:00,52.0,29.0,30.40,SSE,164,6.0,-999.0,40,-99.99,,,-99.99,548.000000,,2013-02-18 16:53:00,
2013-02-18 11:00:00,56.0,26.0,30.37,South,169,7.0,-999.0,32,-99.99,,,-99.99,687.700012,,2013-02-18 17:00:00,
2013-02-18 11:53:00,56.0,26.0,30.37,South,169,7.0,-999.0,32,-99.99,,,-99.99,687.700012,,2013-02-18 17:53:00,
2013-02-18 12:00:00,57.0,27.0,30.34,South,174,8.0,-999.0,31,-99.99,,,-99.99,643.099976,,2013-02-18 18:00:00,
2013-02-18 12:53:00,57.0,27.0,30.34,South,174,8.0,-999.0,31,-99.99,,,-99.99,643.099976,,2013-02-18 18:53:00,
2013-02-18 13:00:00,59.0,27.0,30.30,South,169,7.0,-999.0,29,-99.99,,,-99.99,594.599976,,2013-02-18 19:00:00,
2013-02-18 13:53:00,59.0,27.0,30.30,South,169,7.0,-999.0,29,-99.99,,,-99.99,594.599976,,2013-02-18 19:53:00,
2013-02-18 14:00:00,60.0,29.0,30.27,SSE,160,9.0,-999.0,30,-99.99,,,-99.99,624.799988,,2013-02-18 20:00:00,
2013-02-18 14:53:00,60.0,29.0,30.27,SSE,160,9.0,-999.0,30,-99.99,,,-99.99,624.799988,,2013-02-18 20:53:00,
2013-02-18 15:00:00,60.0,29.0,30.25,SSE,163,10.0,-999.0,31,-99.99,,,-99.99,518.000000,,2013-02-18 21:00:00,
2013-02-18 15:53:00,60.0,29.0,30.25,SSE,163,10.0,-999.0,31,-99.99,,,-99.99,518.000000,,2013-02-18 21:53:00,
2013-02-18 17:00:00,57.0,31.0,30.21,South,169,10.0,-999.0,37,-99.99,,,-99.99,116.400002,,2013-02-18 23:00:00,
2013-02-18 17:54:00,57.0,31.0,30.21,South,169,10.0,-999.0,37,-99.99,,,-99.99,116.400002,,2013-02-18 23:54:00,